Wind_Speed
86 82 79 77 75 74 74 74 74 72 71 69 67 66 64 64 65 66 66 64 62 60 58 56 53 51 50 48 46 45 44 42 40 38 36 36 35 34 34 35 36 37 36
87 85 82 79 77 76 76 76 76 76 75 73 72 70 68 66 65 65 67 67 66 64 62 60 57 55 54 51 49 48 47 45 43 40 38 38 38 36 35 34 34 36 37
75 74 73 72 71 72 73 76 78 79 78 77 76 74 72 71 69 66 66 67 66 66 66 63 60 58 57 55 53 51 50 48 45 43 41 41 41 40 38 36 35 34 34
60 60 59 60 62 64 67 71 76 80 81 81 80 78 77 75 73 70 68 66 65 64 66 66 64 61 59 58 56 54 52 50 48 46 44 44 45 44 40 38 37 35 34
56 55 54 54 55 57 60 64 71 77 82 84 84 83 81 79 77 75 72 69 66 64 64 67 66 64 62 60 58 57 54 51 49 48 48 45 47 46 43 40 38 37 36
59 58 56 54 54 54 56 58 63 71 80 86 87 86 84 83 81 79 76 73 69 66 64 64 67 66 64 62 61 59 56 53 51 50 49 48 45 47 45 42 40 38 36
62 61 60 57 55 55 54 55 56 61 72 83 88 89 87 86 84 82 81 77 73 70 67 64 65 66 66 65 63 61 59 56 53 52 50 49 46 46 48 45 43 40 38
59 60 60 59 58 56 55 55 54 54 60 72 84 90 90 89 88 85 83 81 78 74 70 67 65 66 67 66 65 63 61 58 56 54 53 50 47 45 49 48 46 43 41
51 52 53 55 56 57 56 55 54 53 53 58 71 85 92 92 90 88 86 84 82 79 75 71 68 67 68 68 66 65 63 61 59 56 55 53 49 45 49 51 49 47 44
49 48 47 48 51 54 55 55 55 53 52 52 58 72 86 94 94 90 88 86 84 82 79 77 73 69 69 69 68 67 65 63 61 59 57 55 52 47 46 51 52 50 48
48 47 46 45 45 48 51 54 54 54 52 51 52 59 74 89 95 94 90 87 85 82 80 79 78 74 71 70 70 69 67 65 63 62 60 58 54 51 47 48 54 54 51
46 45 44 43 42 43 46 50 52 53 52 50 50 52 61 78 92 96 93 89 87 84 81 79 78 77 74 71 72 71 69 67 66 64 62 60 57 53 51 48 49 54 54
44 42 41 40 40 40 42 45 49 51 51 49 48 48 53 65 83 95 96 92 89 86 83 81 79 78 76 74 72 73 72 69 68 67 64 61 59 55 52 51 49 50 52
44 42 40 38 37 37 39 42 46 49 49 48 46 45 47 54 70 87 95 95 92 89 86 82 80 78 76 76 74 73 73 71 70 68 66 63 60 57 55 53 51 49 48
45 44 41 37 35 35 36 38 42 46 47 46 43 42 43 46 57 74 89 96 95 92 89 85 82 79 75 74 75 74 73 72 71 70 68 65 62 60 58 56 54 51 49
46 44 42 39 35 33 33 35 39 42 44 43 41 40 40 40 46 59 77 90 95 94 91 88 85 83 78 73 72 73 72 71 71 71 69 67 64 62 60 59 56 54 52
47 45 42 40 36 33 32 33 36 39 41 41 39 38 37 37 39 47 61 79 91 94 93 89 87 85 82 77 72 69 68 69 70 70 70 69 67 65 63 62 60 58 56
49 47 45 41 37 33 31 31 33 36 39 39 38 37 35 34 35 39 48 64 79 90 92 91 88 86 84 81 76 72 68 67 68 68 68 68 67 65 64 64 63 61 59
53 50 47 42 37 33 30 30 30 33 36 37 37 36 35 34 34 36 41 52 65 78 87 89 88 87 85 83 80 76 73 69 68 67 66 66 66 65 64 64 63 61 60
57 53 48 43 37 33 29 28 28 30 34 37 37 37 36 34 34 35 38 44 53 64 75 83 85 85 85 84 82 78 75 72 69 68 66 65 64 64 64 63 63 62 61
60 54 47 40 34 29 27 26 27 27 33 36 37 37 37 36 35 35 36 39 44 52 62 71 77 80 82 82 81 78 76 73 71 68 66 66 64 63 63 63 63 63 62
58 49 39 29 24 22 22 23 24 26 32 36 37 38 38 37 36 35 35 36 39 44 51 59 65 71 76 78 79 77 76 74 72 70 67 66 64 63 61 61 61 61 63
54 40 27 17 13 14 18 20 22 24 30 36 38 38 38 38 37 36 35 36 37 40 44 50 56 62 67 73 74 74 74 73 71 70 67 65 64 63 62 61 60 60 61
50 34 21 9 4 9 13 16 20 23 28 35 39 39 39 39 38 36 36 36 36 37 39 43 47 52 57 62 66 69 69 69 68 68 67 65 65 63 62 62 62 61 60
47 33 19 9 1 5 9 12 16 20 26 33 38 40 40 39 39 37 37 36 36 35 37 38 41 45 50 54 58 62 64 63 63 64 64 64 64 64 63 62 62 62 61
48 34 21 11 3 2 6 9 13 17 23 30 36 40 41 41 40 39 37 36 34 34 34 34 36 39 45 50 55 59 61 60 60 61 62 63 64 64 64 64 64 64 64
Wind_Direction
281 278 274 269 264 261 258 256 254 252 251 249 247 245 243 242 241 239 238 235 234 234 233 232 233 234 235 235 233 232 233 235 237 239 239 235 233 231 230 228 227 225 225
282 279 276 272 267 261 256 252 250 248 248 246 245 244 242 241 241 240 238 235 233 232 233 232 232 233 235 234 232 231 231 233 236 238 239 236 234 230 228 226 224 223 224
283 280 277 273 268 263 256 251 248 245 244 243 242 241 240 239 239 239 238 236 233 231 231 232 232 232 234 234 232 230 230 231 234 236 238 237 233 228 226 225 223 220 220
281 278 274 271 267 262 257 250 246 244 241 240 239 238 238 237 237 237 237 236 234 232 229 229 230 231 233 233 232 230 230 231 233 235 237 238 233 226 223 223 222 219 218
281 278 275 273 270 265 260 253 246 242 239 238 237 236 235 235 235 235 236 235 234 233 230 228 228 230 231 232 232 231 230 231 232 235 237 240 235 224 218 219 219 217 216
282 280 277 274 271 268 263 258 250 242 238 236 235 234 233 233 233 233 234 234 234 233 231 229 227 228 229 231 232 232 231 230 232 235 238 240 236 224 215 215 215 214 213
283 280 277 273 270 267 263 260 256 248 241 236 234 232 231 231 231 232 232 232 233 233 232 230 227 226 228 230 231 232 232 231 231 234 237 239 237 224 214 213 213 212 212
288 283 278 273 268 264 262 259 257 254 247 240 235 231 229 229 229 229 230 230 231 232 231 230 228 226 226 228 229 231 232 232 231 233 236 238 239 229 217 212 213 214 214
294 288 281 274 268 263 259 256 255 254 252 247 240 233 229 227 227 227 228 229 229 230 229 228 228 227 225 225 227 229 231 232 231 231 234 237 239 235 221 214 215 216 216
301 295 288 279 270 263 258 254 252 252 252 250 247 239 232 227 226 224 225 227 228 229 229 228 226 226 225 224 225 227 228 230 231 231 232 235 237 239 231 219 216 217 219
305 299 293 285 276 265 258 252 249 249 250 250 248 245 238 230 226 224 223 224 225 226 227 228 226 226 226 225 224 225 226 227 229 230 230 233 235 236 237 229 220 219 221
309 303 296 289 281 270 259 251 247 246 248 249 249 248 243 235 228 223 221 222 223 223 224 226 226 225 225 226 225 224 225 226 227 228 229 230 232 233 234 235 229 222 222
316 311 302 292 284 274 262 252 246 244 245 247 249 250 247 239 231 225 221 219 221 221 221 223 224 225 225 226 226 225 224 225 227 228 228 229 229 231 232 233 235 231 226
322 318 311 299 288 276 265 254 245 242 242 245 248 250 249 243 234 227 222 218 218 220 220 220 222 223 224 226 227 226 225 225 226 228 229 229 229 230 231 233 234 236 235
323 321 318 308 295 281 267 255 246 242 240 242 245 248 249 245 237 229 224 219 217 217 218 218 219 221 222 224 226 226 226 225 226 227 228 229 230 230 231 233 235 236 238
323 321 318 314 303 287 271 256 247 241 239 240 242 244 246 245 239 231 226 221 217 216 216 217 218 219 220 222 224 225 226 226 226 227 228 229 230 231 232 233 235 236 238
322 320 317 314 307 293 276 259 247 239 237 237 238 240 241 242 239 232 227 223 219 216 215 216 218 219 219 220 221 223 225 226 227 228 228 229 229 230 232 234 235 236 238
321 318 316 311 307 297 280 262 247 237 233 233 234 235 236 236 236 231 226 223 221 218 215 215 217 219 220 220 220 221 223 225 227 228 229 229 229 229 231 233 236 237 238
321 316 312 307 302 296 282 265 248 235 229 228 229 229 230 230 230 227 224 222 221 220 217 216 217 219 220 220 221 221 223 225 227 228 229 230 230 230 230 231 234 236 237
320 315 308 302 295 289 279 264 249 234 225 222 222 223 224 224 224 223 222 219 218 219 219 218 218 219 220 222 222 222 223 225 226 227 229 229 230 230 231 231 233 234 236
322 316 308 298 287 279 269 258 247 232 221 217 217 218 219 220 220 220 218 215 214 215 217 219 219 219 221 222 223 223 225 226 227 228 229 229 230 231 232 232 233 234 235
329 322 313 299 280 266 256 249 243 229 217 213 212 213 215 216 217 216 215 212 210 211 213 216 218 219 220 221 223 224 225 226 228 228 229 231 231 231 232 232 233 234 235
339 335 327 309 274 249 239 237 235 226 215 210 208 209 211 213 214 214 212 210 209 208 210 212 215 217 219 221 222 224 225 227 229 230 231 232 232 233 233 233 233 234 235
350 350 348 337 268 231 226 227 228 222 214 209 206 206 207 209 211 211 211 210 208 208 208 209 212 214 217 219 222 224 225 227 229 231 232 233 234 235 235 236 236 236 236
0 2 6 10 347 219 219 223 225 220 214 209 205 204 205 207 208 209 209 209 209 209 209 211 211 211 211 213 216 219 220 222 224 227 230 231 233 234 235 236 237 237 237
7 10 14 21 29 229 223 227 224 219 216 210 206 204 204 205 206 207 208 208 208 209 211 211 211 210 209 208 209 211 212 214 218 222 224 227 230 232 232 233 234 236 236
Height
5673 5672 5672 5674 5676 5680 5684 5688 5692 5697 5702 5707 5711 5717 5723 5728 5733 5739 5745 5751 5758 5763 5768 5774 5780 5785 5790 5795 5801 5806 5811 5815 5819 5823 5826 5830 5834 5838 5841 5845 5848 5852 5856
5645 5644 5643 5644 5648 5653 5657 5662 5667 5673 5679 5686 5692 5698 5705 5711 5717 5722 5728 5735 5742 5749 5755 5762 5768 5774 5779 5785 5790 5796 5801 5806 5810 5815 5819 5823 5826 5830 5834 5838 5842 5845 5849
5619 5618 5617 5617 5619 5623 5629 5634 5640 5648 5655 5663 5670 5678 5685 5693 5700 5706 5712 5719 5727 5735 5741 5748 5756 5762 5768 5774 5780 5785 5791 5796 5802 5806 5810 5814 5818 5822 5827 5831 5835 5839 5843
5597 5595 5594 5593 5594 5597 5600 5606 5613 5621 5630 5638 5647 5655 5664 5673 5682 5689 5696 5704 5711 5719 5727 5734 5742 5750 5756 5763 5769 5775 5780 5786 5792 5796 5800 5804 5809 5813 5819 5824 5828 5832 5837
5578 5576 5575 5574 5573 5574 5576 5580 5586 5594 5603 5612 5622 5632 5642 5652 5662 5671 5680 5688 5695 5703 5711 5719 5728 5736 5744 5751 5757 5764 5770 5776 5782 5787 5791 5795 5799 5804 5810 5816 5821 5826 5830
5559 5557 5556 5555 5555 5554 5555 5557 5561 5568 5576 5585 5595 5607 5619 5630 5640 5651 5662 5671 5679 5687 5696 5704 5713 5722 5731 5739 5746 5752 5759 5766 5772 5777 5782 5786 5791 5795 5802 5808 5814 5819 5824
5538 5536 5535 5535 5535 5535 5536 5537 5540 5544 5550 5558 5569 5582 5596 5608 5619 5629 5641 5652 5662 5671 5680 5689 5698 5707 5717 5725 5733 5741 5748 5755 5762 5768 5773 5778 5782 5787 5793 5800 5806 5812 5817
5516 5513 5513 5513 5514 5516 5517 5519 5521 5525 5529 5534 5543 5556 5571 5586 5593 5608 5620 5631 5643 5653 5663 5673 5683 5692 5702 5711 5720 5728 5736 5743 5750 5757 5763 5768 5773 5779 5785 5792 5798 5804 5810
5498 5493 5491 5491 5492 5494 5497 5500 5503 5507 5511 5515 5520 5530 5544 5557 5571 5587 5599 5611 5622 5633 5645 5656 5666 5676 5686 5696 5706 5715 5723 5731 5739 5746 5752 5758 5764 5769 5776 5783 5790 5796 5802
5482 5477 5473 5471 5471 5473 5476 5480 5484 5488 5493 5497 5501 5506 5517 5530 5546 5563 5577 5589 5601 5614 5627 5638 5650 5660 5670 5681 5691 5700 5709 5718 5726 5734 5741 5748 5754 5761 5767 5774 5781 5787 5794
5467 5461 5457 5454 5452 5453 5456 5460 5465 5470 5475 5479 5484 5488 5494 5505 5520 5539 5555 5567 5580 5595 5607 5619 5632 5644 5655 5665 5675 5686 5695 5705 5713 5721 5729 5736 5744 5751 5757 5763 5770 5777 5784
5453 5447 5442 5438 5436 5435 5437 5441 5446 5452 5457 5462 5466 5470 5474 5483 5497 5513 5531 5545 5558 5575 5588 5601 5615 5628 5640 5650 5660 5671 5681 5691 5699 5707 5716 5724 5732 5739 5746 5752 5759 5767 5774
5441 5434 5428 5424 5421 5420 5420 5423 5428 5434 5440 5445 5449 5453 5456 5462 5472 5488 5506 5524 5538 5554 5568 5583 5598 5611 5624 5634 5645 5655 5666 5677 5686 5694 5702 5711 5720 5728 5736 5742 5748 5755 5762
5429 5422 5415 5410 5407 5405 5405 5407 5412 5417 5423 5428 5433 5437 5440 5444 5451 5464 5482 5501 5517 5532 5548 5566 5581 5594 5606 5618 5629 5639 5651 5662 5672 5680 5689 5699 5708 5716 5724 5731 5737 5744 5751
5419 5411 5404 5398 5394 5391 5391 5393 5396 5401 5407 5413 5419 5422 5426 5429 5433 5443 5458 5476 5496 5511 5529 5547 5562 5576 5588 5601 5612 5624 5635 5647 5657 5667 5676 5686 5695 5705 5713 5720 5727 5734 5740
5409 5401 5394 5387 5382 5378 5377 5379 5382 5386 5393 5399 5405 5409 5413 5416 5420 5427 5438 5454 5472 5492 5510 5528 5543 5557 5571 5585 5597 5609 5620 5631 5641 5652 5662 5672 5682 5692 5700 5708 5716 5723 5730
5398 5390 5383 5376 5371 5366 5365 5366 5369 5373 5379 5386 5392 5397 5401 5405 5409 5414 5423 5435 5452 5471 5492 5511 5524 5539 5555 5569 5582 5594 5605 5616 5627 5637 5648 5658 5668 5678 5687 5695 5703 5710 5718
5386 5378 5371 5364 5359 5355 5352 5353 5356 5361 5367 5374 5380 5386 5391 5396 5400 5405 5411 5421 5435 5453 5474 5493 5508 5523 5538 5554 5567 5579 5590 5602 5612 5622 5633 5644 5655 5665 5674 5682 5690 5698 5705
5373 5363 5356 5350 5346 5343 5341 5340 5344 5349 5355 5362 5369 5375 5381 5387 5392 5397 5402 5411 5423 5439 5457 5476 5493 5507 5522 5537 5551 5564 5575 5587 5598 5608 5619 5630 5641 5651 5660 5669 5677 5685 5692
5355 5346 5338 5333 5330 5329 5328 5329 5332 5338 5344 5350 5358 5365 5372 5378 5384 5389 5395 5403 5413 5427 5443 5460 5477 5492 5507 5521 5534 5549 5561 5573 5583 5594 5605 5616 5627 5637 5647 5656 5666 5672 5679
5335 5323 5316 5312 5312 5313 5315 5317 5321 5326 5332 5340 5348 5356 5363 5370 5376 5383 5389 5397 5406 5417 5431 5446 5462 5476 5491 5504 5521 5535 5546 5557 5568 5579 5591 5602 5615 5625 5633 5642 5650 5658 5666
5316 5302 5294 5292 5294 5298 5302 5305 5310 5315 5322 5330 5338 5347 5355 5363 5370 5377 5384 5391 5399 5409 5421 5434 5448 5462 5475 5490 5504 5517 5530 5543 5555 5568 5578 5588 5600 5610 5620 5629 5637 5645 5653
5301 5287 5281 5279 5282 5286 5291 5296 5300 5306 5313 5321 5330 5338 5347 5355 5363 5371 5378 5386 5394 5403 5413 5424 5436 5448 5461 5476 5491 5506 5517 5528 5541 5554 5566 5575 5586 5596 5606 5615 5623 5632 5640
5293 5282 5276 5275 5277 5280 5284 5289 5294 5299 5306 5313 5322 5331 5340 5348 5357 5365 5373 5381 5389 5397 5406 5416 5427 5439 5450 5463 5477 5491 5503 5516 5528 5538 5551 5561 5571 5582 5593 5602 5610 5619 5627
5292 5282 5277 5275 5277 5279 5282 5285 5289 5294 5300 5307 5315 5324 5333 5342 5350 5359 5367 5375 5384 5391 5399 5408 5417 5427 5439 5452 5464 5476 5489 5501 5512 5523 5535 5547 5557 5568 5578 5587 5596 5605 5614
5295 5286 5281 5279 5279 5280 5281 5284 5287 5291 5296 5302 5310 5318 5327 5335 5344 5352 5361 5370 5378 5386 5393 5401 5409 5418 5428 5439 5450 5462 5475 5488 5500 5510 5522 5533 5542 5553 5563 5571 5581 5590 5600